Location: Bruderhein
(53.8035°N, 112.9265°W)
Time: 09:39:11
(UTC+00:00)

Meteor 1-19 Rocket - Pass Details

Date: 08 December 2023
Orbit: 806 x 928 km, 81.2° (Epoch: 04 March)

Event Time Altitude Azimuth Distance (km) Brightness Sun altitude
Rises 14:39:49 0° 343° (NNW) 3,591 7.0 -7.7°
Reaches altitude 10° 14:42:25 10° 337° (NNW) 2,639 6.3 -7.4°
Maximum altitude 14:48:06 45° 267° (W) 1,242 4.7 -6.6°
Drops below altitude 10° 14:53:39 10° 197° (SSW) 2,575 6.9 -5.9°
Sets 14:56:10 0° 191° (SSW) 3,495 7.7 -5.6°
